Location: Advent Pentecost Church
(32.7757°N, 96.7408°W)
Time: 02:55:00
(UTC+00:00)

ISS - Visible Passes

Search period start: 21 October 2021 00:00
Search period end: 31 October 2021 00:00
Orbit: 417 x 423 km, 51.6° (Epoch: 20 October)

Date Brightness Start Highest point End Pass type
(mag) Time Alt. Az. Time Alt. Az. Time Alt. Az.
21 Oct -0.5 10:22:00 10° SE 10:22:27 10° SE 10:22:55 10° ESE visible
21 Oct -3.6 11:55:34 10° WSW 11:58:52 54° NW 12:02:11 10° NE visible
22 Oct -3.7 11:10:45 47° SSW 11:11:36 76° SE 11:14:57 10° NE visible
23 Oct -1.1 10:26:10 20° ENE 10:26:10 20° ENE 10:27:27 10° ENE visible
23 Oct -2.0 11:59:11 12° WNW 12:01:13 18° NW 12:03:40 10° NNE visible
24 Oct -2.4 11:14:20 27° NNW 11:14:20 27° NNW 11:16:41 10° NNE visible
25 Oct -0.6 10:29:16 11° NE 10:29:16 11° NE 10:29:28 10° NE visible
26 Oct -1.1 11:17:00 11° N 11:17:00 11° N 11:17:14 10° N visible
